Temp
14 12 12 11 10 10 9 9 9 8 8 7 8 8 8 7 7 6 7 7 8 8 8 7 7 6 7 6 7 7 7 6 6 9 8 7 7 6 6 6 6 6 5
13 12 11 10 10 10 9 9 9 8 8 8 8 8 8 7 7 6 7 7 7 7 7 7 7 7 5 6 6 6 7 6 5 7 9 12 9 8 6 6 6 6 6
14 13 11 11 10 10 10 9 9 8 8 8 8 8 7 6 6 5 5 5 6 7 7 6 6 6 5 5 5 5 6 7 5 5 7 12 11 9 8 7 6 6 6
14 13 12 11 10 10 9 9 8 7 7 8 8 8 9 8 8 6 5 5 5 6 6 6 6 6 5 4 4 5 5 6 6 6 5 5 5 9 11 9 7 6 5
13 12 12 11 10 9 8 8 7 7 7 7 8 8 8 7 6 5 5 4 4 5 5 5 5 5 4 5 4 4 4 4 5 5 5 5 5 5 7 9 8 7 6
12 12 11 9 8 8 7 7 7 7 6 6 7 7 7 6 5 5 5 4 4 3 4 5 5 5 5 4 4 4 3 3 3 3 4 4 5 5 6 7 6 5 6
11 11 10 9 8 7 7 7 7 6 6 6 6 6 6 6 6 5 5 4 4 3 3 4 4 3 4 4 4 3 3 2 3 2 3 2 3 2 3 4 5 5 5
10 10 10 9 8 7 7 7 6 5 5 5 5 5 5 5 4 4 4 4 4 3 4 3 3 3 3 3 3 2 2 2 2 2 1 2 2 1 2 2 3 5 6
9 9 9 8 7 7 7 6 5 5 5 4 4 4 4 4 3 3 3 3 3 2 2 3 2 3 3 2 2 1 1 1 1 1 1 1 1 1 1 1 1 2 4
8 8 8 7 7 6 6 5 5 4 4 3 3 3 3 3 2 2 2 2 2 2 2 1 2 2 2 2 1 1 1 1 1 1 1 1 1 0 0 0 0 0 1
7 7 7 6 5 5 4 4 3 3 3 3 2 2 2 1 1 1 1 1 1 1 1 1 1 0 0 0 0 0 0 -0 0 0 0 0 -0 0 0 0 -0 -0 -0
6 6 5 5 4 4 4 3 3 2 2 1 1 0 0 1 1 0 0 0 -0 0 0 0 -0 -1 -1 -1 -1 -1 -0 -1 -0 -0 -0 -0 -0 -0 -0 -0 -0 -0 -0
4 5 5 4 4 3 3 2 1 1 -1 -1 -0 -1 -2 -1 -1 -1 -1 -1 -1 -1 -1 -1 -2 -2 -2 -2 -2 -2 -2 -1 -1 -1 -1 -1 -1 -1 -1 -1 -1 -1 -1
3 3 3 3 3 2 0 -1 -2 -1 -1 -2 -2 -1 -1 -1 -1 -1 -1 -1 -1 -2 -3 -3 -3 -3 -3 -3 -3 -3 -2 -2 -2 -2 -2 -2 -2 -2 -2 -2 -1 -1 -1
1 1 0 -1 -1 -2 -2 -2 -2 -2 -3 -3 -2 -2 -2 -3 -3 -3 -3 -3 -3 -3 -4 -4 -4 -4 -4 -3 -3 -3 -3 -3 -3 -3 -3 -3 -3 -3 -3 -3 -2 -2 -2
1 1 0 -1 -1 -2 -2 -3 -3 -4 -3 -3 -3 -3 -3 -3 -3 -3 -3 -4 -4 -4 -5 -4 -5 -5 -4 -5 -5 -4 -3 -3 -3 -3 -3 -3 -3 -3 -3 -3 -3 -3 -3
1 0 -0 -1 -2 -2 -3 -3 -4 -4 -3 -3 -4 -4 -4 -4 -5 -5 -5 -5 -5 -5 -5 -5 -5 -5 -5 -6 -5 -5 -4 -3 -3 -3 -3 -3 -3 -4 -4 -4 -4 -4 -3
0 -0 -1 -2 -3 -3 -4 -4 -3 -3 -4 -4 -4 -5 -5 -5 -5 -5 -5 -5 -6 -6 -5 -5 -5 -5 -5 -6 -5 -5 -4 -4 -4 -4 -4 -4 -4 -4 -4 -4 -4 -4 -4
-1 -2 -3 -3 -4 -4 -4 -4 -4 -5 -5 -5 -5 -6 -6 -6 -6 -6 -6 -6 -6 -6 -6 -6 -5 -5 -5 -6 -6 -5 -4 -4 -4 -4 -4 -4 -4 -4 -4 -4 -4 -4 -3
-2 -2 -2 -3 -5 -5 -5 -5 -5 -5 -5 -6 -6 -7 -7 -7 -6 -6 -6 -6 -7 -7 -6 -6 -6 -6 -6 -6 -6 -6 -4 -4 -4 -4 -4 -4 -4 -4 -4 -3 -3 -4 -3
-2 -3 -4 -5 -5 -5 -5 -5 -6 -6 -7 -7 -7 -7 -8 -8 -7 -7 -7 -7 -7 -7 -7 -7 -6 -6 -6 -6 -6 -5 -5 -4 -4 -4 -4 -4 -4 -4 -4 -4 -3 -3 -3
-5 -5 -5 -6 -6 -6 -5 -6 -7 -7 -8 -8 -8 -8 -8 -8 -8 -7 -7 -7 -7 -7 -7 -7 -7 -6 -6 -6 -6 -6 -5 -4 -4 -4 -4 -4 -4 -4 -4 -3 -3 -3 -3
-7 -7 -7 -7 -7 -6 -7 -8 -8 -8 -8 -9 -9 -9 -9 -9 -8 -8 -8 -7 -7 -7 -7 -7 -6 -6 -6 -5 -6 -6 -5 -5 -5 -4 -4 -4 -4 -4 -3 -3 -3 -3 -3
-8 -7 -8 -8 -7 -8 -7 -8 -8 -8 -9 -9 -9 -9 -9 -9 -8 -8 -8 -8 -7 -7 -7 -7 -6 -6 -6 -5 -5 -5 -5 -5 -5 -4 -4 -4 -4 -4 -4 -4 -3 -3 -3
-9 -9 -9 -9 -8 -9 -10 -10 -10 -10 -10 -10 -10 -10 -9 -9 -9 -9 -8 -8 -8 -8 -8 -7 -7 -6 -6 -5 -5 -5 -5 -5 -5 -4 -4 -4 -5 -5 -4 -4 -4 -4 -4
-10 -10 -10 -10 -10 -10 -10 -10 -10 -10 -11 -11 -10 -10 -9 -9 -9 -9 -9 -9 -8 -8 -7 -6 -6 -6 -5 -5 -5 -5 -5 -5 -5 -5 -5 -5 -5 -5 -5 -5 -5 -4 -4
Height
795 800 805 810 814 818 822 826 829 833 837 840 843 846 848 850 852 854 854 855 855 855 856 856 856 856 855 855 854 853 852 851 850 851 851 851 851 850 850 849 847 844 842
795 800 804 808 811 815 819 823 827 831 835 839 842 845 847 849 851 852 853 855 856 856 857 858 858 858 858 857 856 854 855 854 853 853 851 848 852 852 851 851 850 848 846
790 797 801 805 809 813 817 821 825 829 833 836 839 842 844 847 850 852 853 854 856 857 857 858 859 859 859 859 858 857 856 857 857 855 855 849 849 852 852 852 851 850 848
791 794 798 803 807 811 815 819 823 827 831 834 838 840 843 845 848 851 853 854 856 857 858 858 859 860 860 860 860 859 859 859 859 859 859 860 860 856 851 852 852 851 848
790 793 797 801 806 810 813 818 822 826 830 833 838 840 842 844 846 849 852 854 856 857 858 859 859 860 861 861 861 861 861 861 862 861 862 862 861 861 860 852 853 852 851
792 794 799 803 807 811 815 817 820 824 829 832 835 838 840 842 845 849 852 854 856 857 858 859 860 860 861 861 862 862 862 862 863 863 863 863 863 863 862 859 856 855 851
792 795 799 802 806 810 815 818 822 824 827 831 833 836 839 842 845 848 851 853 855 857 858 859 860 861 861 861 861 862 862 863 864 863 864 864 864 864 863 862 859 856 852
795 796 799 803 807 811 815 819 822 825 829 831 833 836 839 842 845 848 850 852 855 856 857 858 860 860 861 861 861 862 863 863 864 864 864 864 863 863 863 862 861 856 851
796 797 801 804 807 811 815 820 823 827 830 832 834 837 840 843 845 848 851 853 854 856 857 857 858 859 860 860 860 861 861 861 862 862 863 863 863 862 861 861 861 861 854
799 800 802 805 809 812 816 821 825 827 831 834 837 838 840 843 846 848 851 853 854 856 856 857 857 857 858 858 859 860 860 860 860 860 860 860 860 860 859 859 859 860 859
802 802 803 807 810 815 818 822 826 828 833 835 838 842 842 844 846 848 850 852 853 854 855 855 856 856 857 857 857 857 858 858 859 858 858 858 858 857 857 857 857 856 856
804 806 806 808 811 815 819 824 826 831 836 836 838 844 845 846 847 848 849 851 852 852 853 853 854 854 854 854 855 856 856 855 856 856 856 855 855 854 854 854 853 853 852
807 807 811 811 813 817 822 825 828 828 836 838 838 843 846 850 848 848 849 849 850 850 851 852 852 853 853 852 852 853 853 853 852 852 851 851 851 851 851 850 849 849 848
808 810 812 815 815 820 824 828 829 831 834 838 841 845 846 848 847 848 848 848 848 849 850 850 850 849 849 848 848 849 849 849 848 848 847 847 847 846 845 845 845 844 843
811 813 814 818 819 823 824 827 831 834 837 840 843 844 845 846 846 847 847 847 847 847 847 847 847 846 845 845 845 846 845 845 845 844 843 843 843 842 842 842 840 840 839
807 811 815 818 820 823 826 829 833 836 839 841 843 843 844 844 844 845 846 845 845 846 845 844 845 843 843 842 842 843 842 841 840 840 839 839 839 838 837 836 836 835 834
806 811 815 818 823 824 828 832 835 838 840 842 842 842 842 842 843 843 843 843 843 843 843 842 842 840 841 839 839 840 839 837 837 837 836 835 834 833 832 831 829 829 828
808 813 817 820 823 825 829 833 836 837 837 839 839 840 840 840 841 841 841 841 841 841 840 840 839 838 838 836 836 835 835 834 833 832 831 831 830 828 827 826 825 824 823
809 813 817 821 824 826 829 832 835 835 835 836 836 837 837 837 838 839 839 838 837 836 836 836 836 835 834 833 833 833 832 830 829 828 827 826 825 823 823 822 820 818 816
811 814 817 820 824 826 828 831 832 833 832 832 834 835 834 836 836 835 835 833 833 833 833 834 833 832 831 830 829 829 828 826 825 824 822 821 819 818 817 815 814 812 810
812 814 817 820 824 825 827 829 829 830 830 830 830 830 831 832 831 831 831 831 831 831 831 831 829 827 827 826 825 825 824 823 820 818 816 815 814 812 811 810 808 805 804
813 815 818 821 823 823 825 825 825 826 828 828 828 827 827 827 826 828 828 828 829 829 828 827 824 823 822 822 821 820 819 818 816 813 811 809 808 806 805 803 801 799 797
813 815 817 819 819 820 822 823 824 825 825 825 824 823 823 824 825 826 827 827 826 826 824 823 821 820 819 819 818 816 815 813 811 809 806 803 801 799 797 795 793 791 790
810 811 814 816 818 819 820 820 821 821 822 822 821 821 822 823 824 824 824 823 822 821 820 819 818 817 816 815 814 812 810 808 805 802 799 797 795 793 790 788 786 785 783
809 811 813 815 816 817 818 817 818 819 819 819 820 820 821 821 820 820 819 818 818 818 817 816 815 813 811 810 809 807 804 802 799 796 793 790 788 786 785 783 781 779 777
808 811 813 814 816 815 814 814 814 815 817 818 818 819 818 818 817 816 815 813 812 812 811 810 809 807 805 803 802 800 798 796 793 790 787 786 784 782 780 777 775 773 771
Wind_Speed
7 13 16 17 18 19 19 19 19 18 17 15 14 11 10 9 8 7 7 7 7 8 8 9 10 11 13 13 14 9 13 16 11 2 3 3 8 7 10 14 14 15 15
8 13 16 17 20 22 20 20 19 20 18 15 13 10 13 9 10 10 9 7 6 6 7 8 9 10 9 12 14 14 10 11 16 7 1 1 3 4 6 10 12 15 13
10 12 17 18 19 21 21 21 20 20 17 15 15 13 12 11 9 9 8 7 6 5 5 6 7 8 9 10 12 13 12 10 10 15 7 2 3 6 1 5 13 11 14
8 11 15 17 19 20 18 19 19 19 17 18 14 15 12 12 11 11 9 8 7 5 4 4 5 6 7 8 9 10 10 7 8 5 9 8 5 3 3 2 7 10 11
8 11 14 16 15 17 19 19 19 17 16 16 12 12 11 9 11 11 12 8 7 5 4 3 3 4 5 6 7 7 7 7 6 6 4 4 4 4 3 4 11 9 9
7 9 12 14 15 15 16 18 19 17 15 13 11 10 11 12 13 12 11 9 7 5 4 3 2 2 3 4 4 5 5 5 4 4 4 4 3 5 4 4 10 11 8
7 10 12 15 16 17 17 17 17 16 15 14 12 12 12 12 12 13 11 10 8 6 4 3 2 2 1 2 2 3 3 2 2 2 2 3 3 3 4 6 8 6 9
5 9 12 14 16 17 17 16 17 16 15 14 14 13 13 11 11 10 10 8 8 7 6 4 2 1 1 1 2 2 2 3 2 2 3 3 4 4 5 6 8 6 7
4 7 11 13 16 17 17 17 17 16 14 14 14 13 12 11 11 11 9 8 7 5 4 2 1 1 2 3 3 3 3 4 4 4 5 5 6 6 6 7 7 7 5
3 6 10 13 14 16 17 17 16 17 15 14 13 14 14 13 11 10 8 7 5 3 2 1 1 2 3 4 4 4 5 5 6 6 7 8 7 8 8 8 9 9 12
3 6 10 12 14 15 16 16 16 18 16 15 14 12 12 11 10 8 6 5 3 2 1 2 3 3 4 4 5 6 6 7 8 8 10 10 9 10 10 10 11 12 13
4 6 11 14 16 17 18 17 19 16 15 15 15 11 10 8 7 6 4 3 1 1 2 3 4 4 4 5 6 7 7 9 10 10 11 13 11 12 13 12 14 15 15
5 6 8 12 16 16 17 19 18 19 14 13 13 9 6 4 4 3 2 1 1 2 3 4 4 4 5 6 7 8 9 10 11 12 13 14 13 15 14 14 15 15 16
7 7 9 12 17 17 18 16 17 17 15 13 10 7 5 3 2 1 1 2 2 3 4 4 5 6 7 7 8 9 10 11 12 13 14 15 15 16 16 16 16 17 18
8 7 8 12 17 17 17 17 16 15 13 9 7 5 4 3 2 1 1 3 3 4 5 6 7 7 7 7 7 9 10 12 13 14 15 15 15 16 17 18 18 18 18
9 9 9 12 14 15 14 14 12 10 7 7 6 4 3 2 1 2 3 3 4 5 5 6 6 6 7 7 8 9 10 12 13 14 14 14 15 16 16 18 20 21 22
10 10 9 13 12 14 13 11 9 7 6 5 4 3 2 1 2 3 3 3 3 5 5 5 6 6 7 7 7 9 11 12 13 14 15 16 15 16 17 17 18 20 22
9 9 12 13 13 14 12 10 8 6 5 3 2 1 1 2 3 3 3 3 4 4 5 6 6 6 7 8 10 11 12 14 14 15 15 16 16 15 16 16 18 18 19
11 12 15 14 14 13 12 8 6 4 3 3 2 1 3 3 4 5 5 5 4 4 6 6 7 8 9 10 12 12 12 13 14 15 16 17 18 17 17 17 19 20 20
13 15 15 14 14 10 8 6 4 2 1 1 2 3 3 4 5 5 5 4 4 5 6 8 9 9 11 11 11 10 11 14 16 17 17 18 18 19 20 22 22 23 22
12 13 12 15 12 7 5 4 2 1 3 3 3 3 4 5 5 4 5 5 6 7 9 10 10 10 11 11 12 12 13 16 18 19 19 19 19 20 21 22 23 24 25
8 10 12 11 8 5 3 3 2 3 3 4 4 4 4 5 5 5 6 7 8 9 10 10 11 10 10 11 13 13 15 18 20 21 21 20 19 21 23 25 25 26 27
10 10 10 8 4 4 4 4 4 4 5 5 5 6 6 5 5 6 8 8 8 10 10 9 11 11 10 11 13 15 16 16 17 18 21 24 26 26 25 23 23 22 22
11 9 8 7 7 5 5 5 5 5 6 6 6 5 4 5 6 7 9 9 9 10 10 10 11 12 13 13 14 14 15 16 18 18 21 23 24 25 24 21 19 18 17
9 9 7 6 5 6 4 3 4 5 5 5 5 4 5 6 7 7 9 10 10 11 12 13 15 16 17 15 18 20 20 20 21 24 23 22 15 11 15 17 19 20 20
7 6 6 6 6 5 4 4 4 5 5 5 4 4 5 5 6 8 11 11 13 14 16 18 19 19 21 21 21 22 22 22 22 22 15 15 19 19 18 17 18 17 18
Wind_Direction
163 175 178 177 176 178 177 178 175 174 170 167 162 161 161 156 150 145 140 127 108 92 81 73 62 57 53 47 45 46 48 41 33 53 84 84 57 56 47 40 39 36 36
160 166 171 174 179 178 180 179 179 177 176 175 174 170 164 163 164 162 156 144 124 107 89 78 67 60 53 49 45 43 40 40 33 24 338 45 151 49 44 38 35 34 34
170 167 173 178 178 181 181 181 180 178 179 174 172 165 162 156 162 165 159 154 142 122 100 83 72 61 58 51 48 46 48 41 37 40 26 340 10 340 26 30 31 26 27
178 169 172 176 180 179 177 176 175 176 177 179 175 174 176 172 178 171 165 157 153 146 123 91 76 67 62 56 49 48 49 43 37 40 46 57 33 354 332 10 13 10 13
186 175 175 171 173 171 170 170 169 171 175 179 181 178 169 165 159 158 155 154 156 155 145 116 89 73 65 60 57 49 45 49 50 43 24 27 37 30 334 319 341 345 346
178 168 162 157 157 159 163 164 164 165 169 173 177 177 166 156 152 155 156 154 150 149 152 137 113 82 63 53 46 43 42 41 45 45 33 23 2 354 344 312 330 323 321
169 164 163 162 158 159 162 162 161 155 160 163 164 159 157 155 155 156 160 157 156 153 151 138 117 101 62 22 16 14 10 11 17 12 359 346 336 320 313 304 313 306 320
165 172 168 164 161 160 160 159 157 149 150 149 147 147 145 145 144 148 148 148 149 147 150 145 142 147 316 312 309 312 306 308 311 308 303 299 296 295 295 297 315 312 290
142 166 165 166 163 160 158 157 150 144 143 140 138 133 132 132 132 131 130 133 134 141 148 159 178 269 283 284 283 275 277 281 281 281 278 274 277 277 278 280 282 293 310
120 152 163 163 160 156 151 149 147 142 139 134 133 129 127 127 128 128 127 130 135 146 160 213 263 275 279 279 279 274 274 276 277 275 274 274 274 271 267 265 264 258 266
137 146 149 152 148 147 145 142 140 136 133 130 125 122 119 122 127 127 131 139 145 163 218 265 283 293 297 293 286 282 280 278 277 276 277 278 278 277 275 270 265 262 258
156 154 151 147 147 145 142 141 138 130 128 122 117 108 110 116 127 134 139 139 148 246 271 284 286 284 285 289 289 287 282 280 279 278 277 279 280 277 276 273 270 268 267
164 151 156 150 143 138 140 136 131 123 120 119 116 106 106 127 125 130 134 143 232 293 298 292 294 293 292 290 286 283 281 279 278 277 276 279 279 277 276 273 272 272 271
163 164 154 160 143 137 133 124 117 121 121 114 113 140 142 142 136 168 218 253 277 290 294 299 295 295 295 293 287 284 282 281 280 280 280 280 278 277 278 276 274 275 273
157 153 134 131 122 122 118 116 116 117 116 121 141 142 155 157 152 188 277 302 306 298 296 299 300 297 296 292 289 287 286 285 284 282 280 280 278 276 276 275 275 275 273
163 154 138 132 131 127 123 121 121 122 136 144 147 159 165 178 209 265 279 288 290 289 294 291 293 299 297 292 301 295 290 287 287 285 284 282 281 281 279 276 275 272 272
150 144 136 133 133 125 129 127 132 141 147 151 152 159 177 203 252 269 283 281 283 291 292 297 293 296 286 294 300 298 293 287 283 282 283 283 280 281 282 283 282 277 272
144 142 135 132 134 135 137 145 154 150 150 157 157 180 242 265 274 277 274 276 265 269 279 282 291 288 292 299 302 302 293 285 281 281 281 281 283 282 283 285 284 281 278
134 141 151 151 152 151 155 157 162 168 160 163 181 245 268 273 267 254 249 252 261 285 295 299 291 292 294 302 304 300 289 284 285 286 285 283 282 283 282 279 276 275 275
146 151 159 164 161 160 162 166 172 187 159 294 249 254 271 253 255 269 278 277 278 294 295 285 279 284 291 302 301 296 289 287 288 286 284 282 280 281 282 280 278 277 279
138 147 154 163 174 176 173 184 204 213 253 270 290 277 264 273 280 287 285 288 290 288 283 279 282 280 279 291 295 292 285 284 287 287 288 287 285 284 285 282 277 274 279
139 152 160 172 184 187 207 215 233 264 274 277 272 281 296 300 301 292 290 288 278 275 279 284 289 284 282 286 293 295 288 286 286 286 286 286 285 284 282 279 276 275 274
180 171 167 169 190 213 224 223 224 266 288 295 300 308 309 301 291 280 276 275 269 268 278 285 288 289 284 292 296 296 291 287 283 283 285 286 287 287 286 282 282 283 280
183 173 172 179 199 220 238 244 259 276 285 291 295 297 291 286 275 267 265 266 269 274 280 282 284 286 287 287 300 297 293 292 290 289 289 287 288 285 283 285 282 277 276
181 183 192 202 213 229 238 261 270 269 269 272 274 265 267 275 281 278 277 275 271 266 268 270 276 281 283 279 296 295 293 291 292 295 295 290 290 291 286 281 280 278 276
173 190 218 230 236 241 263 265 260 262 258 252 249 253 272 276 283 289 292 279 270 271 269 272 275 281 284 289 297 295 293 292 293 296 294 297 294 289 287 286 285 281 278